Weather History for KOTG - March, 2014

Change the Weather History Date:

Friday, March 28, 2014

  Actual Average Record
Temperature  
Mean Temperature 22 °F -  
Max Temperature 28 °F 44 °F 74 °F (1989)
Min Temperature 17 °F 27 °F 10 °F (2008)
Degree Days  
Heating Degree Days 42    
Moisture  
Dew Point 17 °F    
Average Humidity 71    
Maximum Humidity 74    
Minimum Humidity 68    
Precipitation  
Precipitation 0.00 in - - ()
Sea Level Pressure  
Sea Level Pressure 30.07 in    
Wind  
Wind Speed 14 mph (North)    
Max Wind Speed 22 mph    
Max Gust Speed 25 mph    
Visibility 10 miles    
Events      
Averages and records for this station are not official NWS values.
T = Trace of Precipitation, MM = Missing Value Source: NWS Daily Summary

Daily Weather History Graph

Daily Weather History Graph

Search for Another Location

Airport or City:

Trip Planner

Search our weather history database for the weather conditions in past years. The results will help you decide how hot, cold, wet, or windy it might be!

Date:

Astronomy

Mar. 28, 2014 Rise Set
Actual Time 7:11 AM CDT 7:44 PM CDT
Civil Twilight 6:42 AM CDT 8:13 PM CDT
Nautical Twilight 6:08 AM CDT 8:47 PM CDT
Astronomical Twilight 5:33 AM CDT 9:22 PM CDT
Moon 5:46 AM CDT (3/28) 5:38 PM CDT (3/28)
Length of Visible Light 13h 30m
Length of Day
12h 33m
Waning Crescent, 6% of the Moon is Illuminated
Mar 28
Waning Crescent
Mar 30
New
Apr 7
First Quarter
Apr 15
Full
Apr 22
Last Quarter

Hourly Weather History & Observations

Time (CDT) Temp. Windchill Dew Point Humidity Pressure Visibility Wind Dir Wind Speed Gust Speed Precip Events Conditions
12:15 AM 28.4 °F 15.4 °F 21.2 °F 74% 29.81 in 10.0 mi NNW 19.6 mph - N/A   Overcast
12:35 AM 28.4 °F 15.4 °F 21.2 °F 74% 29.82 in 10.0 mi NNW 19.6 mph - N/A   Overcast
12:55 AM 26.6 °F 13.1 °F 19.4 °F 74% 29.83 in 10.0 mi NNW 19.6 mph - N/A   Mostly Cloudy
1:15 AM 28.4 °F 15.8 °F 19.4 °F 69% 29.83 in 10.0 mi NNW 18.4 mph 24.2 mph N/A   Mostly Cloudy
1:35 AM 28.4 °F 15.1 °F 19.4 °F 69% 29.85 in 10.0 mi NNW 20.7 mph - N/A   Overcast
1:55 AM 26.6 °F 13.8 °F 19.4 °F 74% 29.85 in 10.0 mi NNW 17.3 mph - N/A   Overcast
2:15 AM 26.6 °F 13.1 °F 19.4 °F 74% 29.86 in 10.0 mi NNW 19.6 mph - N/A   Overcast
2:35 AM 26.6 °F 13.4 °F 19.4 °F 74% 29.87 in 10.0 mi NNW 18.4 mph 21.9 mph N/A   Overcast
2:55 AM 26.6 °F 13.4 °F 19.4 °F 74% 29.88 in 10.0 mi NNW 18.4 mph 25.3 mph N/A   Overcast
3:15 AM 26.6 °F 12.4 °F 17.6 °F 69% 29.88 in 10.0 mi North 21.9 mph - N/A   Overcast
3:35 AM 24.8 °F 12.4 °F 17.6 °F 74% 29.89 in 10.0 mi North 15.0 mph - N/A   Overcast
3:55 AM 24.8 °F 12.9 °F 17.6 °F 74% 29.90 in 10.0 mi NNW 13.8 mph 19.6 mph N/A   Overcast
4:15 AM 24.8 °F 12.4 °F 15.8 °F 69% 29.91 in 10.0 mi NNW 15.0 mph - N/A   Overcast
4:35 AM 24.8 °F 13.4 °F 15.8 °F 69% 29.92 in 10.0 mi NNW 12.7 mph - N/A   Overcast
4:55 AM 23.0 °F 10.6 °F 15.8 °F 74% 29.92 in 10.0 mi North 13.8 mph - N/A   Overcast
5:15 AM 21.2 °F 9.5 °F 14.0 °F 74% 29.93 in 10.0 mi NNW 11.5 mph - N/A   Overcast
5:35 AM 21.2 °F 10.9 °F 14.0 °F 74% 29.94 in 10.0 mi North 9.2 mph - N/A   Mostly Cloudy
5:55 AM 21.2 °F 8.9 °F 12.2 °F 68% 29.95 in 10.0 mi NNW 12.7 mph - N/A   Overcast
6:15 AM 19.4 °F 6.0 °F 12.2 °F 74% 29.96 in 10.0 mi North 13.8 mph - N/A   Mostly Cloudy
6:35 AM 19.4 °F 7.9 °F 10.4 °F 68% 29.98 in 10.0 mi NNW 10.4 mph - N/A   Mostly Cloudy
6:55 AM 19.4 °F 6.6 °F 10.4 °F 68% 30.00 in 10.0 mi NNW 12.7 mph - N/A   Overcast
7:15 AM 17.6 °F 4.3 °F 10.4 °F 73% 30.00 in 10.0 mi NNW 12.7 mph - N/A   Overcast
7:35 AM 17.6 °F 5.7 °F 8.6 °F 68% 30.00 in 10.0 mi NNW 10.4 mph - N/A   Scattered Clouds
7:55 AM 17.6 °F 3.7 °F 10.4 °F 73% 29.99 in 10.0 mi North 13.8 mph - N/A   Clear
8:15 AM 17.6 °F 5.0 °F 10.4 °F 73% 30.03 in 10.0 mi NNW 11.5 mph - N/A   Clear
8:35 AM 17.6 °F 4.3 °F 10.4 °F 73% 30.04 in 10.0 mi NNW 12.7 mph - N/A   Clear
8:55 AM 17.6 °F 5.0 °F 10.4 °F 73% 30.04 in 10.0 mi North 11.5 mph - N/A   Clear
9:15 AM 19.4 °F 9.5 °F 12.2 °F 74% 30.06 in 10.0 mi NNW 8.1 mph - N/A   Clear
9:35 AM 19.4 °F 8.6 °F 12.2 °F 74% 30.07 in 10.0 mi NNW 9.2 mph - N/A   Clear
9:55 AM 21.2 °F 12.6 °F 12.2 °F 68% 30.08 in 10.0 mi NNW 6.9 mph - N/A   Clear
10:15 AM 21.2 °F 8.3 °F 12.2 °F 68% 30.06 in 10.0 mi North 13.8 mph - N/A   Clear
10:35 AM 23.0 °F 10.6 °F 14.0 °F 68% 30.05 in 10.0 mi NNE 13.8 mph - N/A   Clear
10:55 AM 23.0 °F 12.4 °F 14.0 °F 68% 30.08 in 10.0 mi North 10.4 mph - N/A   Clear
11:15 AM 23.0 °F 14.7 °F 15.8 °F 74% 30.09 in 10.0 mi NNE 6.9 mph - N/A   Clear
11:35 AM 24.8 °F 16.1 °F 15.8 °F 69% 30.09 in 10.0 mi NNE 8.1 mph - N/A   Clear
11:55 AM 24.8 °F 15.3 °F 17.6 °F 74% 30.09 in 10.0 mi NNE 9.2 mph - N/A   Clear
12:15 PM 26.6 °F 18.2 °F 17.6 °F 69% 30.10 in 10.0 mi North 8.1 mph - N/A   Clear
12:35 PM 26.6 °F 20.0 °F 17.6 °F 69% 30.10 in 10.0 mi North 5.8 mph - N/A   Clear
12:55 PM 26.6 °F 16.8 °F 17.6 °F 69% 30.12 in 10.0 mi NNW 10.4 mph - N/A   Partly Cloudy
1:15 PM 26.6 °F 18.2 °F 19.4 °F 74% 30.12 in 10.0 mi North 8.1 mph - N/A   Partly Cloudy
1:35 PM 28.4 °F 19.1 °F 19.4 °F 69% 30.12 in 10.0 mi North 10.4 mph - N/A   Clear
1:55 PM 28.4 °F 19.7 °F 19.4 °F 69% 30.13 in 10.0 mi North 9.2 mph - N/A   Clear
2:15 PM 26.6 °F 18.2 °F 19.4 °F 74% 30.13 in 10.0 mi North 8.1 mph - N/A   Clear
2:35 PM 26.6 °F 16.8 °F 19.4 °F 74% 30.13 in 10.0 mi NNE 10.4 mph - N/A   Scattered Clouds
2:55 PM 26.6 °F 17.5 °F 19.4 °F 74% 30.13 in 10.0 mi NNE 9.2 mph - N/A   Scattered Clouds
3:15 PM 28.4 °F 19.7 °F 19.4 °F 69% 30.14 in 10.0 mi North 9.2 mph - N/A   Scattered Clouds
3:35 PM 26.6 °F 16.8 °F 19.4 °F 74% 30.13 in 10.0 mi NNE 10.4 mph - N/A   Mostly Cloudy
3:55 PM 28.4 °F 18.5 °F 19.4 °F 69% 30.14 in 10.0 mi NE 11.5 mph - N/A   Mostly Cloudy
4:15 PM 28.4 °F 19.1 °F 21.2 °F 74% 30.14 in 10.0 mi NE 10.4 mph - N/A   Scattered Clouds
4:35 PM 28.4 °F 19.7 °F 19.4 °F 69% 30.16 in 10.0 mi NNE 9.2 mph - N/A   Mostly Cloudy
4:55 PM 28.4 °F 19.7 °F 19.4 °F 69% 30.16 in 10.0 mi North 9.2 mph - N/A   Overcast
5:15 PM 28.4 °F 19.1 °F 19.4 °F 69% 30.17 in 10.0 mi North 10.4 mph - N/A   Mostly Cloudy
5:35 PM 28.4 °F 19.1 °F 19.4 °F 69% 30.18 in 10.0 mi North 10.4 mph - N/A   Scattered Clouds
5:55 PM 28.4 °F 19.1 °F 19.4 °F 69% 30.18 in 10.0 mi North 10.4 mph - N/A   Mostly Cloudy
6:15 PM 28.4 °F 18.5 °F 19.4 °F 69% 30.18 in 10.0 mi North 11.5 mph - N/A   Scattered Clouds
6:35 PM 28.4 °F 19.1 °F 19.4 °F 69% 30.18 in 10.0 mi North 10.4 mph - N/A   Partly Cloudy
6:55 PM 26.6 °F 16.8 °F 17.6 °F 69% 30.18 in 10.0 mi North 10.4 mph - N/A   Partly Cloudy
7:15 PM 26.6 °F 16.2 °F 17.6 °F 69% 30.18 in 10.0 mi North 11.5 mph - N/A   Clear
7:35 PM 26.6 °F 16.8 °F 17.6 °F 69% 30.18 in 10.0 mi North 10.4 mph - N/A   Clear
7:55 PM 26.6 °F 17.5 °F 17.6 °F 69% 30.18 in 10.0 mi North 9.2 mph - N/A   Clear
8:15 PM 26.6 °F 16.8 °F 17.6 °F 69% 30.19 in 10.0 mi North 10.4 mph - N/A   Clear
8:35 PM 26.6 °F 17.5 °F 17.6 °F 69% 30.20 in 10.0 mi North 9.2 mph - N/A   Clear
8:55 PM 24.8 °F 15.3 °F 17.6 °F 74% 30.21 in 10.0 mi North 9.2 mph - N/A   Clear
9:15 PM 24.8 °F 14.6 °F 17.6 °F 74% 30.21 in 10.0 mi North 10.4 mph - N/A   Partly Cloudy
9:35 PM 24.8 °F 16.9 °F 17.6 °F 74% 30.22 in 10.0 mi North 6.9 mph - N/A   Clear
9:55 PM 24.8 °F 16.9 °F 17.6 °F 74% 30.23 in 10.0 mi NNW 6.9 mph - N/A   Clear
10:15 PM 24.8 °F 17.9 °F 15.8 °F 69% 30.23 in 10.0 mi NNW 5.8 mph - N/A   Clear
10:35 PM 24.8 °F 16.9 °F 15.8 °F 69% 30.24 in 10.0 mi NNW 6.9 mph - N/A   Clear
10:55 PM 23.0 °F 14.7 °F 15.8 °F 74% 30.25 in 10.0 mi NNW 6.9 mph - N/A   Clear
11:15 PM 23.0 °F 15.8 °F 15.8 °F 74% 30.26 in 10.0 mi NNW 5.8 mph - N/A   Clear
11:35 PM 23.0 °F 14.7 °F 15.8 °F 74% 30.26 in 10.0 mi NNW 6.9 mph - N/A   Partly Cloudy
11:55 PM 23.0 °F 15.8 °F 15.8 °F 74% 30.26 in 10.0 mi NNW 5.8 mph - N/A   Clear